This is the latest recevied weather packets stored in our database for station/object N0KTA-2. If no packets are shown the sender has not sent any weather packets the latest 10 day(s).
| Time | Temp. | Humidity | Pressure | Rain* | Wind** | Luminosity | Snow |
|---|---|---|---|---|---|---|---|
| 1777399165 | 14.44° C | 67% | 1011.6 hPa | 0 mm | - | - | - |
| 1777398565 | 13.89° C | 68% | 1011.7 hPa | 0 mm | - | - | - |
| 1777397963 | 13.33° C | 70% | 1011.9 hPa | 0 mm | - | - | - |
| 1777397364 | 13.33° C | 68% | 1012 hPa | 0 mm | - | - | - |
| 1777396765 | 12.78° C | 70% | 1011.8 hPa | 0 mm | - | - | - |
| 1777396163 | 12.78° C | 70% | 1012.1 hPa | 0 mm | - | - | - |
| 1777395564 | 12.78° C | 70% | 1012.2 hPa | 0 mm | - | - | - |
| 1777394963 | 12.78° C | 71% | 1012.3 hPa | 0 mm | - | - | - |
| 1777394364 | 11.67° C | 72% | 1012.9 hPa | 0 mm | - | - | - |
| 1777393763 | 11.67° C | 73% | 1013 hPa | 0 mm | - | - | - |
| 1777393164 | 11.11° C | 73% | 1013.5 hPa | 0 mm | - | - | - |
| 1777392563 | 11.11° C | 74% | 1013.4 hPa | 0 mm | - | - | - |
| 1777391964 | 11.11° C | 75% | 1013.1 hPa | 0 mm | - | - | - |
| 1777391363 | 10.56° C | 76% | 1013.1 hPa | 0 mm | - | - | - |
| 1777390763 | 10.56° C | 77% | 1013.3 hPa | 0 mm | - | - | - |
| 1777390164 | 10° C | 78% | 1013.4 hPa | 0 mm | - | - | - |
| 1777389564 | 10° C | 78% | 1013.5 hPa | 0 mm | - | - | - |
| 1777388965 | 9.44° C | 79% | 1013.4 hPa | 0 mm | - | - | - |
| 1777388365 | 9.44° C | 79% | 1013 hPa | 0 mm | - | - | - |
| 1777387766 | 10° C | 79% | 1012.9 hPa | 0 mm | - | - | - |
| 1777387165 | 10° C | 79% | 1013 hPa | 0 mm | - | - | - |
| 1777386566 | 9.44° C | 78% | 1013.3 hPa | 0 mm | - | - | - |
| 1777385965 | 9.44° C | 79% | 1013 hPa | 0 mm | - | - | - |
| 1777385366 | 8.89° C | 80% | 1013 hPa | 0 mm | - | - | - |
| 1777384766 | 8.89° C | 80% | 1012.9 hPa | 0 mm | - | - | - |
* Rain latest hour (hover to see other rain measurements)
** Current wind speed in m/s (hover to see current wind gust speed)